Home   Weather   Bandar-Abbas   Past weeks

Flag for Iran Past Weather in Bandar-Abbas, Iran — Yesterday and Last 2 Weeks

Now
81 °F

Clear.


Feels Like: 83 °F
Forecast: 75 / 94 °F
Wind: 9 mph from Northeast

Location: Bandarabbass

Current Time: Apr 24, 2017 at 2:06:07 am

Latest Report: Apr 24, 2017 at 1:30 am


Visibility: 10 mi

Pressure: 29.71 "Hg

Humidity: 66%

Dew Point: 68 °F

Location of Bandar-AbbasLocation

Past Weather in Bandar-Abbas — Graph

°F

Bandar-Abbas Temperature Yesterday

Maximum temperature yesterday: 106 °F (at 12:30 pm)
Minimum temperature yesterday: 70 °F (at 6:30 am)
Average temperature yesterday: 91 °F

High & Low Weather Summary for the Past Weeks

 TemperatureHumidityPressure
High106 °F (Apr 23, 12:30 pm)94% (Apr 22, 3:30 am)29.95 "Hg (Apr 22, 3:30 am)
Low68 °F (Apr 9, 4:30 am)9% (Apr 23, 12:30 pm)29.59 "Hg (Apr 21, 5:00 pm)
Average86 °F57%29.76 "Hg
* Reported Apr 9 12:30 am — Apr 24 12:30 am, Bandar-Abbas, Weather by CustomWeather, © 2017

Note: Actual official high and low records may vary slightly from our data, if they occured in-between our weather recording intervals... More about our weather records

Advertising

Bandar-Abbas Weather History for the Previous 24 Hours

Scroll right to see more
 ConditionsComfort  
Time TempWeatherWind HumidityBarometerVisibility
12:30 am
Mon, Apr 24
81 °FClear.7 mph74%29.71 "Hg10 mi
11:30 pm
Sun, Apr 23
82 °FClear.7 mph79%29.71 "Hg10 mi
11:00 pm84 °FClear.5 mph70%29.71 "Hg10 mi
10:30 pm88 °FClear.7 mph40%29.71 "Hg10 mi
10:00 pm91 °FClear.7 mph20%29.68 "Hg10 mi
9:30 pm93 °FClear.7 mph16%29.68 "Hg10 mi
9:00 pm93 °FClear.7 mph17%29.68 "Hg10 mi
8:30 pm95 °FClear.9 mph13%29.68 "Hg10 mi
8:00 pm95 °FClear.12 mph14%29.68 "Hg10 mi
7:30 pm95 °FSunny.12 mph22%29.68 "Hg10 mi
7:00 pm95 °FSunny.9 mph23%29.68 "Hg10 mi
6:30 pm99 °FSunny.14 mph21%29.68 "Hg10 mi
5:30 pm102 °FSunny.16 mph20%29.68 "Hg10 mi
4:30 pm104 °FSunny.16 mph14%29.68 "Hg10 mi
4:00 pm104 °FSunny.14 mph14%29.68 "Hg10 mi
3:30 pm104 °FSunny.14 mph13%29.68 "Hg10 mi
3:00 pm106 °FSunny.14 mph13%29.71 "Hg10 mi
2:30 pm104 °FSunny.14 mph13%29.71 "Hg10 mi
2:00 pm104 °FSunny.12 mph16%29.74 "Hg10 mi
1:30 pm104 °FSunny.7 mph14%29.74 "Hg10 mi
1:00 pm104 °FSunny.14 mph12%29.77 "Hg10 mi
12:30 pm106 °FSunny.9 mph9%29.77 "Hg10 mi
11:30 am104 °FSunny.9 mph11%29.80 "Hg10 mi
11:00 am102 °FSunny.12 mph11%29.80 "Hg10 mi
10:30 am100 °FSunny.9 mph15%29.80 "Hg10 mi
10:00 am99 °FSunny.7 mph18%29.80 "Hg10 mi
9:30 am93 °FClear.7 mph26%29.77 "Hg4 mi
9:00 am90 °FClear.7 mph36%29.77 "Hg4 mi
8:30 am86 °FClear.No wind62%29.77 "Hg4 mi
8:00 am82 °FClear.5 mph70%29.77 "Hg4 mi
7:30 am75 °FClear.5 mph83%29.74 "Hg4 mi
7:00 am72 °FFog.5 mph94%29.74 "Hg3 mi
6:30 am70 °FFog.5 mph94%29.74 "Hg2 mi
5:30 am72 °FFog.5 mph88%29.71 "Hg2 mi
4:30 am73 °FFog.5 mph89%29.71 "Hg2 mi
3:30 am75 °FFog.5 mph89%29.71 "Hg2 mi
2:30 am77 °FFog.5 mph83%29.71 "Hg2 mi
2:00 am79 °FFog.7 mph84%29.71 "Hg2 mi
Weather by CustomWeather, © 2017

See weather overviewHow to use our weather pages